Regional Weather Roundup
Issued by NWS

Home | Current Version | Previous Version | Text Only | Print | Product List | Glossary On
Versions: 1 2 3 4 5 6 7 8 9 10 11 12 13 14 15 16 17 18 19 20 21 22 23 24 25 26 27 28 29 30 31 32 33 34 35 36 37 38 39 40 41 42 43 44 45 46 47 48 49 50
000
ASUS43 KMKX 252200
RWRWI

WISCONSIN REGIONAL WEATHER ROUNDUP
NATIONAL WEATHER SERVICE MILWAUKEE/SULLIVAN WI
500 PM CDT TUE JUL 25 2017

NOTE: "FAIR" INDICATES FEW OR NO CLOUDS BELOW 12,000 FEET WITH NO
SIGNIFICANT WEATHER AND/OR OBSTRUCTIONS TO VISIBILITY.

WIZ001-002-006>008-014>016-023>028-252300-
NORTHWEST WISCONSIN

CITY           SKY/WX    TMP DP  RH WIND       PRES   REMARKS
SUPERIOR ARPT  NOT AVBL
ASHLAND        CLOUDY    77  65  66 S14       29.97F
HAYWARD        CLOUDY    73  64  73 S8        30.00F
SIREN          CLOUDY    75  65  70 S9        29.97F
CUMBERLAND     CLOUDY    72  63  73 SE9       30.01S
RICE LAKE      CLOUDY    75  64  67 SE12G18   30.02F
CHETEK         PTSUNNY   74  65  74 S13       30.01F
LADYSMITH      CLOUDY    74  64  71 S10G16    30.04F
EAU CLAIRE     NOT AVBL
MENOMONIE      CLOUDY    78  67  68 SE12      30.00F HX  80
NEW RICHMOND   CLOUDY    78  66  66 S13       29.98F HX  80
OSCEOLA        CLOUDY    79  67  65 S12       29.99S HX  82
$$

WIZ003>005-009-010-017-018-252300-
NORTH CENTRAL WISCONSIN

CITY           SKY/WX    TMP DP  RH WIND       PRES   REMARKS
MANITOWISH WTR PTSUNNY   72  58  62 S15       30.06F
ARBOR VITAE    CLOUDY    69  62  77 S8        30.07S
WOODRUFF       CLOUDY    69  62  77 S8        30.07S
RHINELANDER    PTSUNNY   74  58  57 S12       30.09F
EAGLE RIVER    PTSUNNY   72  53  51 S9        30.09S
LAND O LAKES   PTSUNNY   74  52  47 S10       30.08F
PHILLIPS       CLOUDY    67  64  88 SE9       30.04F
TOMAHAWK         N/A     67  58  74 S3        30.09S
MEDFORD        PTSUNNY   72  61  68 S17       30.07F
MERRILL        LGT RAIN  67  64  87 SE5       30.10S
$$

WIZ029-030-035-036-043>047-252300-
CENTRAL WISCONSIN

CITY           SKY/WX    TMP DP  RH WIND       PRES   REMARKS
WAUSAU         CLOUDY    73  60  63 S12       30.07S
MOSINEE        PTSUNNY   70  64  83 SE9       30.09F
MARSHFIELD     MOSUNNY   75  60  59 S10       30.06F
STEVENS POINT  MOSUNNY   73  58  59 S13G20    30.10F
WAUPACA        PTSUNNY   80  60  50 S10       30.11S HX  81
WAUTOMA        MOSUNNY   77  63  61 S10       30.11S
WISC RAPIDS    MOSUNNY   79  62  56 S8        30.09F HX  80
CAMP DOUGLAS   NOT AVBL
$$

WIZ011>013-019>022-031-037>040-048>050-252300-
NORTHEAST WISCONSIN

CITY           SKY/WX    TMP DP  RH WIND       PRES   REMARKS
ANTIGO         CLOUDY    69  58  69 S8        30.10F
SHAWANO        MOSUNNY   75  61  60 S3        30.08F
OCONTO         PTSUNNY   76  64  66 S6        30.10S
STURGEON BAY     N/A     72  60  66 S18G24    30.11F
GREEN BAY      MOSUNNY   77  63  61 S13G18    30.09F
MANITOWOC      NOT AVBL
APPLETON       PTSUNNY   77  57  50 S17       30.10F
CLINTONVILLE   CLOUDY   N/A N/A N/A S12       30.08F
OSHKOSH        PTSUNNY   77  62  59 S12       30.10F
$$

WIZ032>034-041-042-053>061-252300-
SOUTHWEST WISCONSIN

CITY           SKY/WX    TMP DP  RH WIND       PRES   REMARKS
LA CROSSE      MOSUNNY   81  66  60 S14       30.02F HX  83
SPARTA         PTSUNNY   75  65  70 S12       30.07S
VIROQUA        MOSUNNY   75  66  73 S16       30.07F
BOSCOBEL       CLOUDY    81  66  60 VRB6      30.07F HX  83
PRAIRIE DU CHI SUNNY     80  64  59 SE9G17    30.06F HX  81
PLATTEVILLE    SUNNY     78  68  70 S16       30.11F HX  81
$$

WIZ056-057-062-063-064-067-068-252300-
SOUTH CENTRAL WISCONSIN

CITY           SKY/WX    TMP DP  RH WIND       PRES   REMARKS
REEDSBURG      CLOUDY    75  66  73 S7        30.09F
BARABOO/DELLS  CLOUDY    77  61  56 S16G25    30.09F
LONE ROCK      NOT AVBL
MINERAL POINT  SUNNY     79  70  73 SE12      30.11F HX  81
MADISON        CLOUDY    77  61  57 S15G28    30.10F
MIDDLETON      CLOUDY    77  62  61 S14G20    30.11F
WATERTOWN      CLOUDY    75  64  67 S9        30.13R
MONROE         CLOUDY    77  63  61 S15G21    30.13F
JANESVILLE     PTSUNNY   79  63  57 S12G17    30.12F HX  80
$$

WIZ051-052-058>065-066-070>072-252300-
SOUTHEAST WISCONSIN

CITY           SKY/WX    TMP DP  RH WIND       PRES   REMARKS
MILWAUKEE      CLOUDY    74  62  66 S12       30.13F
WAUKESHA       MOSUNNY   73  59  60 SE12      30.15S
MILWAUKEE/TIMM SUNNY     75  57  53 SE8       30.14F
RACINE         CLOUDY    74  62  66 SE13      30.15F
KENOSHA        CLOUDY    74  59  59 SE15G24   30.14F
FOND DU LAC    CLOUDY    78  59  51 S17       30.11F
SHEBOYGAN      MOSUNNY   73  61  65 S18G28    30.13F
WEST BEND      PTSUNNY   72  59  64 SE9       30.14R
JUNEAU         CLOUDY    76  62  60 S14       30.13F
$$

LSZ147-162-252300-
LAKE SUPERIOR

STATION/POSITION TIME  TEMP    WIND        PRES    WAVE
                       AIR SEA DIR/SP/G            HT/PER
                 (UTC) (F)     (DEG/KT/KT) (MB)    (FT/S)
W MID LAKE BUOY  2050   60 53  130/  6/  8 1015.6F   1
DEVILS ISLAND    2100   74     160/  8/ 11 1014.8F
PORT WING        1930   78     190/ 12/ 18 1015.2S
SAXON HARBOR     2140   76     200/  5/  9 1014.9S
$$

LMZ867-665-643>646-252300-
LAKE MICHIGAN

STATION/POSITION TIME  TEMP    WIND        PRES    WAVE
                       AIR SEA DIR/SP/G            HT/PER
                 (UTC) (F)     (DEG/KT/KT) (MB)    (FT/S)
CHAMBERS ISLAND  2140   74     150/  8/ 17 1018.6F
S GREEN BAY BUOY 2130   74 73  150/ 16/ 17 1019.1F
N MID LAKE BUOY  2050   67 67  180/ 14/ 16 1021.6F   2/ 3
NORTHPORT PIER   2140   69     160/ 10/ 16 1019.6F
KEWAUNEE LAKESHO 2130   70     170/ 18/ 20 1019.7F
SHEBOYGAN LAKESH 2100   69     160/ 20/ 21 1020.2F
PORT WASHINGTON  2130   72     170/ 13/ 18 1021.3S
ATWATER BUOY     2009   70 68  150/ 17/ 21 1021.3F
MILWAUKEE LAKESH 2140   69     150/ 17/ 19   N/A
S MID LAKE BUOY  2050   71 71  160/  6/  6 1022.7F   1/ 4
KENOSHA   LAKESH 2100   73     140/ 14/ 15 1021.0
$$

TC  - TEMPERATURE IN CELSIUS
VSB - VISIBILITY IN STATUTE MILES
WCI - WIND CHILL INDEX
HX  - HEAT INDEX





USA.gov is the U.S. government's official web portal to all federal, state and local government web resources and services.